contact:dominique.lefevre@mio.osupytheas.fr, maurice.libes@osupytheas.fr, didier.mallarino@osupytheas.fr
Project:EMSO http://www.emso-fr.org/EMSO-France
Depth: 2436.0 m
Title:EMSO Ligure Ouest : Data MII capteur MICROCAT
DateTime_Computer,Latitude,Longitude,Temperature,Conductivity,Pressure,DateTime_Instrument
DateTime_Computer,Latitude,Longitude,degC,S m-1,dbar,DateTime_Instrument
2017-12-13T00:00:27Z,42.805,6.029,13.2936,4.59958,2471.987,2017-12-13T02:01:57Z
2017-12-13T00:03:30Z,42.805,6.029,13.2939,4.59953,2472.01,2017-12-13T02:05:00Z
2017-12-13T00:06:33Z,42.805,6.029,13.2939,4.59964,2472.024,2017-12-13T02:08:03Z
2017-12-13T00:09:36Z,42.805,6.029,13.2935,4.59954,2472.047,2017-12-13T02:11:06Z
2017-12-13T00:12:39Z,42.805,6.029,13.2938,4.59956,2472.024,2017-12-13T02:14:08Z
2017-12-13T00:15:42Z,42.805,6.029,13.2935,4.59954,2472.024,2017-12-13T02:17:11Z
2017-12-13T00:18:44Z,42.805,6.029,13.2935,4.59954,2472.024,2017-12-13T02:20:14Z
2017-12-13T00:21:47Z,42.805,6.029,13.2936,4.59956,2472.032,2017-12-13T02:23:17Z
2017-12-13T00:24:50Z,42.805,6.029,13.2955,4.59955,2472.01,2017-12-13T02:26:20Z
2017-12-13T00:27:53Z,42.805,6.029,13.2935,4.59959,2472.024,2017-12-13T02:29:23Z
2017-12-13T00:30:56Z,42.805,6.029,13.2941,4.59960,2472.069,2017-12-13T02:32:26Z
2017-12-13T00:33:59Z,42.805,6.029,13.2939,4.59953,2472.032,2017-12-13T02:35:29Z
2017-12-13T00:37:02Z,42.805,6.029,13.2940,4.59954,2472.047,2017-12-13T02:38:32Z
2017-12-13T00:40:05Z,42.805,6.029,13.2936,4.59954,2472.032,2017-12-13T02:41:34Z
2017-12-13T00:43:08Z,42.805,6.029,13.2941,4.59954,2472.032,2017-12-13T02:44:37Z
2017-12-13T00:46:11Z,42.805,6.029,13.2935,4.59954,2472.047,2017-12-13T02:47:40Z
2017-12-13T00:49:13Z,42.805,6.029,13.2935,4.59956,2472.055,2017-12-13T02:50:43Z
2017-12-13T00:52:16Z,42.805,6.029,13.2933,4.59954,2472.032,2017-12-13T02:53:46Z
2017-12-13T00:55:19Z,42.805,6.029,13.2939,4.59955,2472.024,2017-12-13T02:56:49Z
2017-12-13T00:58:22Z,42.805,6.029,13.2938,4.59955,2472.01,2017-12-13T02:59:52Z
2017-12-13T01:01:25Z,42.805,6.029,13.2937,4.59956,2472.069,2017-12-13T03:02:55Z
2017-12-13T01:04:28Z,42.805,6.029,13.2938,4.59959,2472.032,2017-12-13T03:05:58Z
2017-12-13T01:07:31Z,42.805,6.029,13.2933,4.59956,2472.047,2017-12-13T03:09:01Z
2017-12-13T01:10:34Z,42.805,6.029,13.2936,4.59957,2472.069,2017-12-13T03:12:03Z
2017-12-13T01:13:37Z,42.805,6.029,13.2937,4.59957,2472.069,2017-12-13T03:15:06Z
2017-12-13T01:16:39Z,42.805,6.029,13.2940,4.59956,2472.032,2017-12-13T03:18:09Z
2017-12-13T01:19:42Z,42.805,6.029,13.2937,4.59954,2472.069,2017-12-13T03:21:12Z
2017-12-13T01:22:45Z,42.805,6.029,13.2936,4.59960,2472.047,2017-12-13T03:24:15Z
2017-12-13T01:25:48Z,42.805,6.029,13.2935,4.59955,2472.047,2017-12-13T03:27:18Z
2017-12-13T01:28:51Z,42.805,6.029,13.2939,4.59955,2472.047,2017-12-13T03:30:21Z
2017-12-13T01:31:54Z,42.805,6.029,13.2939,4.59958,2472.069,2017-12-13T03:33:24Z
2017-12-13T01:34:57Z,42.805,6.029,13.2935,4.59956,2472.1,2017-12-13T03:36:27Z
2017-12-13T01:38:00Z,42.805,6.029,13.2933,4.59959,2472.069,2017-12-13T03:39:29Z
2017-12-13T01:41:03Z,42.805,6.029,13.2935,4.59956,2472.069,2017-12-13T03:42:32Z
2017-12-13T01:44:05Z,42.805,6.029,13.2935,4.59957,2472.092,2017-12-13T03:45:35Z
2017-12-13T01:47:08Z,42.805,6.029,13.2935,4.59958,2472.055,2017-12-13T03:48:38Z
2017-12-13T01:50:11Z,42.805,6.029,13.2935,4.59956,2472.055,2017-12-13T03:51:41Z
2017-12-13T01:53:14Z,42.805,6.029,13.2939,4.59956,2472.069,2017-12-13T03:54:44Z
2017-12-13T01:56:17Z,42.805,6.029,13.2939,4.59956,2472.092,2017-12-13T03:57:47Z
2017-12-13T01:59:20Z,42.805,6.029,13.2939,4.59958,2472.069,2017-12-13T04:00:50Z
2017-12-13T02:02:23Z,42.805,6.029,13.2935,4.59956,2472.092,2017-12-13T04:03:53Z
2017-12-13T02:05:26Z,42.805,6.029,13.2940,4.59955,2472.069,2017-12-13T04:06:55Z
2017-12-13T02:08:29Z,42.805,6.029,13.2933,4.59956,2472.092,2017-12-13T04:09:58Z
2017-12-13T02:11:31Z,42.805,6.029,13.2935,4.59957,2472.1,2017-12-13T04:13:01Z
2017-12-13T02:14:34Z,42.805,6.029,13.2936,4.59957,2472.115,2017-12-13T04:16:04Z
2017-12-13T02:17:37Z,42.805,6.029,13.2936,4.59958,2472.077,2017-12-13T04:19:07Z
2017-12-13T02:20:40Z,42.805,6.029,13.2935,4.59960,2472.115,2017-12-13T04:22:10Z
2017-12-13T02:23:43Z,42.805,6.029,13.2934,4.59960,2472.092,2017-12-13T04:25:13Z
2017-12-13T02:26:46Z,42.805,6.029,13.2936,4.59958,2472.1,2017-12-13T04:28:16Z
2017-12-13T02:29:49Z,42.805,6.029,13.2936,4.59958,2472.077,2017-12-13T04:31:19Z
2017-12-13T02:32:52Z,42.805,6.029,13.2940,4.59959,2472.092,2017-12-13T04:34:21Z
2017-12-13T02:35:55Z,42.805,6.029,13.2939,4.59956,2472.115,2017-12-13T04:37:24Z
2017-12-13T02:38:57Z,42.805,6.029,13.2940,4.59958,2472.1,2017-12-13T04:40:27Z
2017-12-13T02:42:00Z,42.805,6.029,13.2937,4.59958,2472.092,2017-12-13T04:43:30Z
2017-12-13T02:45:03Z,42.805,6.029,13.2941,4.59958,2472.092,2017-12-13T04:46:33Z
2017-12-13T02:48:06Z,42.805,6.029,13.2939,4.59958,2472.1,2017-12-13T04:49:36Z
2017-12-13T02:51:09Z,42.805,6.029,13.2940,4.59964,2472.077,2017-12-13T04:52:39Z
2017-12-13T02:54:12Z,42.805,6.029,13.2941,4.59959,2472.115,2017-12-13T04:55:42Z
2017-12-13T02:57:15Z,42.805,6.029,13.2945,4.59972,2472.137,2017-12-13T04:58:45Z
2017-12-13T03:00:18Z,42.805,6.029,13.2950,4.59964,2472.055,2017-12-13T05:01:48Z
2017-12-13T03:03:21Z,42.805,6.029,13.2948,4.59963,2472.092,2017-12-13T05:04:50Z
2017-12-13T03:06:24Z,42.805,6.029,13.2945,4.59970,2472.115,2017-12-13T05:07:53Z
2017-12-13T03:09:26Z,42.805,6.029,13.2961,4.60002,2472.092,2017-12-13T05:10:56Z
2017-12-13T03:12:29Z,42.805,6.029,13.2962,4.60010,2472.115,2017-12-13T05:13:59Z
2017-12-13T03:15:32Z,42.805,6.029,13.2954,4.59983,2472.077,2017-12-13T05:17:02Z
2017-12-13T03:18:35Z,42.805,6.029,13.2953,4.59994,2472.137,2017-12-13T05:20:05Z
2017-12-13T03:21:38Z,42.805,6.029,13.2947,4.60026,2472.115,2017-12-13T05:23:08Z
2017-12-13T03:24:41Z,42.805,6.029,13.2951,4.59997,2472.092,2017-12-13T05:26:11Z
2017-12-13T03:27:44Z,42.805,6.029,13.2945,4.59982,2472.137,2017-12-13T05:29:14Z
2017-12-13T03:30:47Z,42.805,6.029,13.2953,4.59987,2472.123,2017-12-13T05:32:16Z
2017-12-13T03:33:50Z,42.805,6.029,13.2955,4.60011,2472.115,2017-12-13T05:35:19Z
2017-12-13T03:36:52Z,42.805,6.029,13.2956,4.59982,2472.137,2017-12-13T05:38:22Z
2017-12-13T03:39:55Z,42.805,6.029,13.2943,4.59994,2472.115,2017-12-13T05:41:25Z
2017-12-13T03:42:58Z,42.805,6.029,13.2950,4.59977,2472.092,2017-12-13T05:44:28Z
2017-12-13T03:46:01Z,42.805,6.029,13.2947,4.59974,2472.1,2017-12-13T05:47:31Z
2017-12-13T03:49:04Z,42.805,6.029,13.2944,4.59983,2472.137,2017-12-13T05:50:34Z
2017-12-13T03:52:07Z,42.805,6.029,13.2947,4.59981,2472.115,2017-12-13T05:53:37Z
2017-12-13T03:55:10Z,42.805,6.029,13.2947,4.59992,2472.137,2017-12-13T05:56:40Z
2017-12-13T03:58:13Z,42.805,6.029,13.2948,4.59984,2472.137,2017-12-13T05:59:42Z
2017-12-13T04:01:16Z,42.805,6.029,13.2948,4.59978,2472.137,2017-12-13T06:02:45Z
2017-12-13T04:04:18Z,42.805,6.029,13.2950,4.59984,2472.1,2017-12-13T06:05:48Z
2017-12-13T04:07:21Z,42.805,6.029,13.2948,4.59982,2472.123,2017-12-13T06:08:51Z
2017-12-13T04:10:24Z,42.805,6.029,13.2948,4.59984,2472.115,2017-12-13T06:11:54Z
2017-12-13T04:13:27Z,42.805,6.029,13.2946,4.59974,2472.1,2017-12-13T06:14:57Z
2017-12-13T04:16:30Z,42.805,6.029,13.2964,4.59984,2472.137,2017-12-13T06:18:00Z
2017-12-13T04:19:33Z,42.805,6.029,13.2940,4.59981,2472.115,2017-12-13T06:21:03Z
2017-12-13T04:22:36Z,42.805,6.029,13.2954,4.59990,2472.115,2017-12-13T06:24:06Z
2017-12-13T04:25:39Z,42.805,6.029,13.2950,4.60019,2472.137,2017-12-13T06:27:08Z
2017-12-13T04:28:42Z,42.805,6.029,13.2947,4.59984,2472.092,2017-12-13T06:30:11Z
2017-12-13T04:31:44Z,42.805,6.029,13.2947,4.59985,2472.115,2017-12-13T06:33:14Z
2017-12-13T04:34:47Z,42.805,6.029,13.2946,4.59984,2472.115,2017-12-13T06:36:17Z
2017-12-13T04:37:50Z,42.805,6.029,13.2949,4.59984,2472.123,2017-12-13T06:39:20Z
2017-12-13T04:40:53Z,42.805,6.029,13.2947,4.59992,2472.137,2017-12-13T06:42:23Z
2017-12-13T04:43:56Z,42.805,6.029,13.2943,4.59984,2472.123,2017-12-13T06:45:26Z
2017-12-13T04:46:59Z,42.805,6.029,13.2944,4.59987,2472.16,2017-12-13T06:48:29Z
2017-12-13T04:50:02Z,42.805,6.029,13.2952,4.59984,2472.1,2017-12-13T06:51:32Z
2017-12-13T04:53:05Z,42.805,6.029,13.2947,4.59982,2472.137,2017-12-13T06:54:35Z
2017-12-13T04:56:08Z,42.805,6.029,13.2950,4.59995,2472.137,2017-12-13T06:57:37Z
2017-12-13T04:59:11Z,42.805,6.029,13.2954,4.59991,2472.1,2017-12-13T07:00:40Z
2017-12-13T05:02:13Z,42.805,6.029,13.2957,4.59994,2472.1,2017-12-13T07:03:43Z
2017-12-13T05:05:16Z,42.805,6.029,13.2954,4.59998,2472.137,2017-12-13T07:06:46Z
2017-12-13T05:08:19Z,42.805,6.029,13.2955,4.59983,2472.115,2017-12-13T07:09:49Z
2017-12-13T05:11:22Z,42.805,6.029,13.2945,4.59987,2472.16,2017-12-13T07:12:52Z
2017-12-13T05:14:25Z,42.805,6.029,13.2945,4.59972,2472.175,2017-12-13T07:15:55Z
2017-12-13T05:17:28Z,42.805,6.029,13.2949,4.59995,2472.115,2017-12-13T07:18:58Z
2017-12-13T05:20:31Z,42.805,6.029,13.2950,4.59999,2472.123,2017-12-13T07:22:01Z
2017-12-13T05:23:34Z,42.805,6.029,13.2950,4.59992,2472.115,2017-12-13T07:25:03Z
2017-12-13T05:26:37Z,42.805,6.029,13.2960,4.59998,2472.137,2017-12-13T07:28:06Z
2017-12-13T05:29:39Z,42.805,6.029,13.2950,4.59990,2472.1,2017-12-13T07:31:09Z
2017-12-13T05:32:42Z,42.805,6.029,13.2943,4.59984,2472.115,2017-12-13T07:34:12Z
2017-12-13T05:35:45Z,42.805,6.029,13.2942,4.59987,2472.137,2017-12-13T07:37:15Z
2017-12-13T05:38:48Z,42.805,6.029,13.2941,4.59977,2472.1,2017-12-13T07:40:18Z
2017-12-13T05:41:51Z,42.805,6.029,13.2943,4.59979,2472.137,2017-12-13T07:43:21Z
2017-12-13T05:44:54Z,42.805,6.029,13.2948,4.59991,2472.123,2017-12-13T07:46:24Z
2017-12-13T05:47:57Z,42.805,6.029,13.2948,4.59978,2472.115,2017-12-13T07:49:27Z
2017-12-13T05:51:00Z,42.805,6.029,13.2950,4.59988,2472.1,2017-12-13T07:52:29Z
2017-12-13T05:54:03Z,42.805,6.029,13.2953,4.59995,2472.115,2017-12-13T07:55:32Z
2017-12-13T05:57:05Z,42.805,6.029,13.2960,4.60015,2472.077,2017-12-13T07:58:35Z
2017-12-13T06:00:08Z,42.805,6.029,13.2952,4.60011,2472.115,2017-12-13T08:01:38Z
2017-12-13T06:03:11Z,42.805,6.029,13.2947,4.59995,2472.16,2017-12-13T08:04:41Z
2017-12-13T06:06:14Z,42.805,6.029,13.2957,4.59995,2472.115,2017-12-13T08:07:44Z
2017-12-13T06:09:17Z,42.805,6.029,13.2951,4.59999,2472.123,2017-12-13T08:10:47Z
2017-12-13T06:12:20Z,42.805,6.029,13.2953,4.60016,2472.092,2017-12-13T08:13:50Z
2017-12-13T06:15:23Z,42.805,6.029,13.2956,4.60033,2472.137,2017-12-13T08:16:53Z
2017-12-13T06:18:26Z,42.805,6.029,13.2957,4.60002,2472.137,2017-12-13T08:19:55Z
2017-12-13T06:21:29Z,42.805,6.029,13.2951,4.59998,2472.137,2017-12-13T08:22:58Z
2017-12-13T06:24:32Z,42.805,6.029,13.2961,4.60009,2472.137,2017-12-13T08:26:01Z
2017-12-13T06:27:34Z,42.805,6.029,13.2964,4.60015,2472.1,2017-12-13T08:29:04Z
2017-12-13T06:30:37Z,42.805,6.029,13.2962,4.60031,2472.1,2017-12-13T08:32:07Z
2017-12-13T06:33:40Z,42.805,6.029,13.2972,4.60047,2472.1,2017-12-13T08:35:10Z
2017-12-13T06:36:43Z,42.805,6.029,13.2978,4.60044,2472.092,2017-12-13T08:38:13Z
2017-12-13T06:39:46Z,42.805,6.029,13.2979,4.60084,2472.115,2017-12-13T08:41:16Z
2017-12-13T06:42:49Z,42.805,6.029,13.2982,4.60037,2472.115,2017-12-13T08:44:19Z
2017-12-13T06:45:52Z,42.805,6.029,13.2980,4.60032,2472.137,2017-12-13T08:47:22Z
2017-12-13T06:48:55Z,42.805,6.029,13.2970,4.60040,2472.077,2017-12-13T08:50:24Z
2017-12-13T06:51:58Z,42.805,6.029,13.2973,4.60015,2472.1,2017-12-13T08:53:27Z
2017-12-13T06:55:00Z,42.805,6.029,13.2970,4.60010,2472.115,2017-12-13T08:56:30Z
2017-12-13T06:58:03Z,42.805,6.029,13.2951,4.60009,2472.092,2017-12-13T08:59:33Z
2017-12-13T07:01:06Z,42.805,6.029,13.2959,4.60004,2472.115,2017-12-13T09:02:36Z
2017-12-13T07:04:09Z,42.805,6.029,13.2958,4.60021,2472.092,2017-12-13T09:05:39Z
2017-12-13T07:07:12Z,42.805,6.029,13.2958,4.60038,2472.1,2017-12-13T09:08:42Z
2017-12-13T07:10:15Z,42.805,6.029,13.2973,4.60029,2472.069,2017-12-13T09:11:45Z
2017-12-13T07:13:18Z,42.805,6.029,13.2975,4.59977,2472.1,2017-12-13T09:14:48Z
2017-12-13T07:16:21Z,42.805,6.029,13.2964,4.59987,2472.115,2017-12-13T09:17:50Z
2017-12-13T07:19:24Z,42.805,6.029,13.2988,4.59980,2472.115,2017-12-13T09:20:53Z
2017-12-13T07:22:26Z,42.805,6.029,13.2979,4.60001,2472.1,2017-12-13T09:23:56Z
2017-12-13T07:25:29Z,42.805,6.029,13.2991,4.59983,2472.055,2017-12-13T09:26:59Z
2017-12-13T07:28:32Z,42.805,6.029,13.2960,4.59992,2472.115,2017-12-13T09:30:02Z
2017-12-13T07:31:35Z,42.805,6.029,13.2968,4.60004,2472.092,2017-12-13T09:33:05Z
2017-12-13T07:34:38Z,42.805,6.029,13.2960,4.59979,2472.092,2017-12-13T09:36:08Z
2017-12-13T07:37:41Z,42.805,6.029,13.2973,4.59981,2472.055,2017-12-13T09:39:11Z
2017-12-13T07:40:44Z,42.805,6.029,13.2974,4.59980,2472.092,2017-12-13T09:42:14Z
2017-12-13T07:43:47Z,42.805,6.029,13.2969,4.59968,2472.092,2017-12-13T09:45:16Z
2017-12-13T07:46:50Z,42.805,6.029,13.2953,4.59994,2472.069,2017-12-13T09:48:19Z
2017-12-13T07:49:52Z,42.805,6.029,13.2954,4.59985,2472.069,2017-12-13T09:51:22Z
2017-12-13T07:52:55Z,42.805,6.029,13.2964,4.59980,2472.069,2017-12-13T09:54:25Z
2017-12-13T07:55:58Z,42.805,6.029,13.2981,4.59982,2472.069,2017-12-13T09:57:28Z
2017-12-13T07:59:01Z,42.805,6.029,13.2964,4.59978,2472.077,2017-12-13T10:00:31Z
2017-12-13T08:02:04Z,42.805,6.029,13.2951,4.60009,2472.055,2017-12-13T10:03:34Z
2017-12-13T08:05:07Z,42.805,6.029,13.2952,4.59975,2472.084,2017-12-13T10:06:37Z
2017-12-13T08:08:10Z,42.805,6.029,13.2960,4.59970,2472.092,2017-12-13T10:09:40Z
2017-12-13T08:11:13Z,42.805,6.029,13.2973,4.59974,2472.077,2017-12-13T10:12:42Z
2017-12-13T08:14:16Z,42.805,6.029,13.2961,4.59981,2472.077,2017-12-13T10:15:45Z
2017-12-13T08:17:19Z,42.805,6.029,13.2945,4.59978,2472.077,2017-12-13T10:18:48Z
2017-12-13T08:20:21Z,42.805,6.029,13.2954,4.59973,2472.069,2017-12-13T10:21:51Z
2017-12-13T08:23:24Z,42.805,6.029,13.2955,4.59978,2472.069,2017-12-13T10:24:54Z
2017-12-13T08:26:27Z,42.805,6.029,13.2967,4.59986,2472.092,2017-12-13T10:27:57Z
2017-12-13T08:29:30Z,42.805,6.029,13.2953,4.59970,2472.069,2017-12-13T10:31:00Z
2017-12-13T08:32:33Z,42.805,6.029,13.2951,4.59972,2472.069,2017-12-13T10:34:03Z
2017-12-13T08:35:36Z,42.805,6.029,13.2955,4.59969,2472.047,2017-12-13T10:37:06Z
2017-12-13T08:38:39Z,42.805,6.029,13.2954,4.59987,2472.055,2017-12-13T10:40:09Z
2017-12-13T08:41:42Z,42.805,6.029,13.2954,4.59982,2472.047,2017-12-13T10:43:11Z
2017-12-13T08:44:45Z,42.805,6.029,13.2966,4.59986,2472.069,2017-12-13T10:46:14Z
2017-12-13T08:47:47Z,42.805,6.029,13.2970,4.59967,2472.092,2017-12-13T10:49:17Z
2017-12-13T08:50:50Z,42.805,6.029,13.2960,4.59975,2472.047,2017-12-13T10:52:20Z
2017-12-13T08:53:53Z,42.805,6.029,13.2962,4.59977,2472.069,2017-12-13T10:55:23Z
2017-12-13T08:56:56Z,42.805,6.029,13.2985,4.59972,2472.092,2017-12-13T10:58:26Z
2017-12-13T08:59:59Z,42.805,6.029,13.2964,4.59969,2472.024,2017-12-13T11:01:29Z
2017-12-13T09:03:02Z,42.805,6.029,13.2954,4.59970,2472.092,2017-12-13T11:04:32Z
2017-12-13T09:06:05Z,42.805,6.029,13.2958,4.59970,2472.055,2017-12-13T11:07:35Z
2017-12-13T09:09:08Z,42.805,6.029,13.2962,4.59974,2472.047,2017-12-13T11:10:38Z
2017-12-13T09:12:11Z,42.805,6.029,13.2957,4.59968,2472.069,2017-12-13T11:13:40Z
2017-12-13T09:15:14Z,42.805,6.029,13.2961,4.59976,2472.055,2017-12-13T11:16:43Z
2017-12-13T09:18:16Z,42.805,6.029,13.2957,4.59974,2472.024,2017-12-13T11:19:46Z
2017-12-13T09:21:19Z,42.805,6.029,13.2957,4.59973,2472.069,2017-12-13T11:22:49Z
2017-12-13T09:24:22Z,42.805,6.029,13.2969,4.59972,2472.047,2017-12-13T11:25:52Z
2017-12-13T09:27:25Z,42.805,6.029,13.2955,4.59973,2472.032,2017-12-13T11:28:55Z
2017-12-13T09:30:28Z,42.805,6.029,13.2965,4.59972,2472.069,2017-12-13T11:31:58Z
2017-12-13T09:33:31Z,42.805,6.029,13.2959,4.59977,2472.055,2017-12-13T11:35:01Z
2017-12-13T09:36:34Z,42.805,6.029,13.2960,4.59977,2472.047,2017-12-13T11:38:04Z
2017-12-13T09:39:37Z,42.805,6.029,13.2962,4.59973,2472.047,2017-12-13T11:41:06Z
2017-12-13T09:42:40Z,42.805,6.029,13.2959,4.59973,2472.055,2017-12-13T11:44:09Z
2017-12-13T09:45:43Z,42.805,6.029,13.2961,4.59972,2472.069,2017-12-13T11:47:12Z
2017-12-13T09:48:45Z,42.805,6.029,13.2967,4.59973,2472.024,2017-12-13T11:50:15Z
2017-12-13T09:51:48Z,42.805,6.029,13.2962,4.59971,2472.055,2017-12-13T11:53:18Z
2017-12-13T09:54:51Z,42.805,6.029,13.2961,4.59973,2472.032,2017-12-13T11:56:21Z
2017-12-13T09:57:54Z,42.805,6.029,13.2961,4.59992,2472.047,2017-12-13T11:59:24Z
2017-12-13T10:00:57Z,42.805,6.029,13.2954,4.59987,2472.047,2017-12-13T12:02:27Z
2017-12-13T10:04:00Z,42.805,6.029,13.2971,4.59978,2472.047,2017-12-13T12:05:30Z
2017-12-13T10:07:03Z,42.805,6.029,13.2957,4.59981,2472.047,2017-12-13T12:08:33Z
2017-12-13T10:10:06Z,42.805,6.029,13.2958,4.60015,2472.055,2017-12-13T12:11:35Z
2017-12-13T10:13:09Z,42.805,6.029,13.2957,4.59972,2472.032,2017-12-13T12:14:38Z
2017-12-13T10:16:11Z,42.805,6.029,13.2961,4.59981,2472.069,2017-12-13T12:17:41Z
2017-12-13T10:19:14Z,42.805,6.029,13.2959,4.59973,2472.069,2017-12-13T12:20:44Z
2017-12-13T10:22:17Z,42.805,6.029,13.2958,4.60008,2472.092,2017-12-13T12:23:47Z
2017-12-13T10:25:20Z,42.805,6.029,13.2957,4.59975,2472.055,2017-12-13T12:26:50Z
2017-12-13T10:28:23Z,42.805,6.029,13.2955,4.59973,2472.055,2017-12-13T12:29:53Z
2017-12-13T10:31:26Z,42.805,6.029,13.2964,4.59979,2472.047,2017-12-13T12:32:56Z
2017-12-13T10:34:29Z,42.805,6.029,13.2958,4.59988,2472.069,2017-12-13T12:35:59Z
2017-12-13T10:37:32Z,42.805,6.029,13.2975,4.59988,2472.047,2017-12-13T12:39:02Z
2017-12-13T10:40:35Z,42.805,6.029,13.2957,4.59986,2472.047,2017-12-13T12:42:04Z
2017-12-13T10:43:38Z,42.805,6.029,13.2968,4.60007,2472.047,2017-12-13T12:45:07Z
2017-12-13T10:46:40Z,42.805,6.029,13.2971,4.59995,2472.069,2017-12-13T12:48:10Z
2017-12-13T10:49:43Z,42.805,6.029,13.2959,4.59995,2472.047,2017-12-13T12:51:13Z
2017-12-13T10:52:46Z,42.805,6.029,13.2983,4.59989,2472.024,2017-12-13T12:54:16Z
2017-12-13T10:55:49Z,42.805,6.029,13.2978,4.59983,2472.047,2017-12-13T12:57:19Z
2017-12-13T10:58:52Z,42.805,6.029,13.2958,4.59974,2472.024,2017-12-13T13:00:22Z
2017-12-13T11:01:55Z,42.805,6.029,13.2959,4.59985,2472.069,2017-12-13T13:03:25Z
2017-12-13T11:04:58Z,42.805,6.029,13.2951,4.59990,2472.047,2017-12-13T13:06:28Z
2017-12-13T11:08:01Z,42.805,6.029,13.2954,4.60002,2472.055,2017-12-13T13:09:30Z
2017-12-13T11:11:04Z,42.805,6.029,13.2981,4.59998,2472.069,2017-12-13T13:12:33Z
2017-12-13T11:14:07Z,42.805,6.029,13.2964,4.60021,2472.069,2017-12-13T13:15:36Z
2017-12-13T11:17:09Z,42.805,6.029,13.2944,4.59985,2472.055,2017-12-13T13:18:39Z
2017-12-13T11:20:12Z,42.805,6.029,13.2942,4.59970,2472.047,2017-12-13T13:21:42Z
2017-12-13T11:23:15Z,42.805,6.029,13.2936,4.59964,2472.024,2017-12-13T13:24:45Z
2017-12-13T11:26:18Z,42.805,6.029,13.2951,4.59993,2472.047,2017-12-13T13:27:48Z
2017-12-13T11:29:21Z,42.805,6.029,13.2936,4.59975,2472.032,2017-12-13T13:30:51Z
2017-12-13T11:32:24Z,42.805,6.029,13.2939,4.59965,2472.055,2017-12-13T13:33:54Z
2017-12-13T11:35:27Z,42.805,6.029,13.2937,4.59961,2472.047,2017-12-13T13:36:57Z
2017-12-13T11:38:30Z,42.805,6.029,13.2935,4.59971,2472.069,2017-12-13T13:39:59Z
2017-12-13T11:41:33Z,42.805,6.029,13.2931,4.59973,2472.092,2017-12-13T13:43:02Z
2017-12-13T11:44:36Z,42.805,6.029,13.2951,4.60001,2472.024,2017-12-13T13:46:05Z
2017-12-13T11:47:38Z,42.805,6.029,13.2937,4.59967,2472.032,2017-12-13T13:49:08Z
2017-12-13T11:50:41Z,42.805,6.029,13.2961,4.59975,2472.047,2017-12-13T13:52:11Z
2017-12-13T11:53:44Z,42.805,6.029,13.2937,4.59988,2472.069,2017-12-13T13:55:14Z
2017-12-13T11:56:47Z,42.805,6.029,13.2958,4.59995,2472.055,2017-12-13T13:58:17Z
2017-12-13T11:59:50Z,42.805,6.029,13.2940,4.60006,2472.092,2017-12-13T14:01:20Z
2017-12-13T12:02:53Z,42.805,6.029,13.2951,4.59992,2472.055,2017-12-13T14:04:23Z
2017-12-13T12:05:56Z,42.805,6.029,13.2939,4.59972,2472.055,2017-12-13T14:07:26Z
2017-12-13T12:08:59Z,42.805,6.029,13.2938,4.59975,2472.069,2017-12-13T14:10:28Z
2017-12-13T12:12:02Z,42.805,6.029,13.2938,4.59962,2472.047,2017-12-13T14:13:31Z
2017-12-13T12:15:04Z,42.805,6.029,13.2933,4.59965,2472.092,2017-12-13T14:16:34Z
2017-12-13T12:18:07Z,42.805,6.029,13.2935,4.59964,2472.032,2017-12-13T14:19:37Z
2017-12-13T12:21:10Z,42.805,6.029,13.2937,4.59958,2472.032,2017-12-13T14:22:40Z
2017-12-13T12:24:13Z,42.805,6.029,13.2935,4.59957,2472.055,2017-12-13T14:25:43Z
2017-12-13T12:27:16Z,42.805,6.029,13.2935,4.59958,2472.069,2017-12-13T14:28:46Z
2017-12-13T12:30:19Z,42.805,6.029,13.2937,4.59959,2472.032,2017-12-13T14:31:49Z
2017-12-13T12:33:22Z,42.805,6.029,13.2933,4.59958,2472.047,2017-12-13T14:34:52Z
2017-12-13T12:36:25Z,42.805,6.029,13.2935,4.59958,2472.092,2017-12-13T14:37:55Z
2017-12-13T12:39:28Z,42.805,6.029,13.2937,4.59958,2472.092,2017-12-13T14:40:57Z
2017-12-13T12:42:31Z,42.805,6.029,13.2935,4.59960,2472.092,2017-12-13T14:44:00Z
2017-12-13T12:45:33Z,42.805,6.029,13.2939,4.59959,2472.055,2017-12-13T14:47:03Z
2017-12-13T12:48:36Z,42.805,6.029,13.2935,4.59959,2472.092,2017-12-13T14:50:06Z
2017-12-13T12:51:39Z,42.805,6.029,13.2935,4.59957,2472.115,2017-12-13T14:53:09Z
2017-12-13T12:54:42Z,42.805,6.029,13.2935,4.59958,2472.032,2017-12-13T14:56:12Z
2017-12-13T12:57:45Z,42.805,6.029,13.2934,4.59958,2472.055,2017-12-13T14:59:15Z
2017-12-13T13:00:48Z,42.805,6.029,13.2939,4.59958,2472.092,2017-12-13T15:02:18Z
2017-12-13T13:03:51Z,42.805,6.029,13.2933,4.59959,2472.115,2017-12-13T15:05:21Z
2017-12-13T13:06:54Z,42.805,6.029,13.2937,4.59961,2472.092,2017-12-13T15:08:23Z
2017-12-13T13:09:57Z,42.805,6.029,13.2938,4.59958,2472.092,2017-12-13T15:11:26Z
2017-12-13T13:13:00Z,42.805,6.029,13.2938,4.59961,2472.115,2017-12-13T15:14:29Z
2017-12-13T13:16:02Z,42.805,6.029,13.2937,4.59959,2472.069,2017-12-13T15:17:32Z
2017-12-13T13:19:05Z,42.805,6.029,13.2935,4.59958,2472.077,2017-12-13T15:20:35Z
2017-12-13T13:22:08Z,42.805,6.029,13.2940,4.59960,2472.115,2017-12-13T15:23:38Z
2017-12-13T13:25:11Z,42.805,6.029,13.2938,4.59959,2472.092,2017-12-13T15:26:41Z
2017-12-13T13:28:14Z,42.805,6.029,13.2940,4.59961,2472.077,2017-12-13T15:29:44Z
2017-12-13T13:31:17Z,42.805,6.029,13.2938,4.59962,2472.092,2017-12-13T15:32:47Z
2017-12-13T13:34:20Z,42.805,6.029,13.2936,4.59960,2472.092,2017-12-13T15:35:50Z
2017-12-13T13:37:23Z,42.805,6.029,13.2938,4.59961,2472.115,2017-12-13T15:38:52Z
2017-12-13T13:40:26Z,42.805,6.029,13.2935,4.59961,2472.137,2017-12-13T15:41:55Z
2017-12-13T13:43:28Z,42.805,6.029,13.2940,4.59959,2472.115,2017-12-13T15:44:58Z
2017-12-13T13:46:31Z,42.805,6.029,13.2939,4.59959,2472.077,2017-12-13T15:48:01Z
2017-12-13T13:49:34Z,42.805,6.029,13.2936,4.59960,2472.1,2017-12-13T15:51:04Z
2017-12-13T13:52:37Z,42.805,6.029,13.2935,4.59961,2472.092,2017-12-13T15:54:07Z
2017-12-13T13:55:40Z,42.805,6.029,13.2935,4.59958,2472.137,2017-12-13T15:57:10Z
2017-12-13T13:58:43Z,42.805,6.029,13.2935,4.59960,2472.092,2017-12-13T16:00:13Z
2017-12-13T14:01:46Z,42.805,6.029,13.2940,4.59958,2472.115,2017-12-13T16:03:16Z
2017-12-13T14:04:49Z,42.805,6.029,13.2937,4.59960,2472.123,2017-12-13T16:06:19Z
2017-12-13T14:07:52Z,42.805,6.029,13.2932,4.59957,2472.123,2017-12-13T16:09:21Z
2017-12-13T14:10:55Z,42.805,6.029,13.2933,4.59961,2472.115,2017-12-13T16:12:24Z
2017-12-13T14:13:57Z,42.805,6.029,13.2935,4.59960,2472.137,2017-12-13T16:15:27Z
2017-12-13T14:17:00Z,42.805,6.029,13.2939,4.59956,2472.123,2017-12-13T16:18:30Z
2017-12-13T14:20:03Z,42.805,6.029,13.2937,4.59958,2472.123,2017-12-13T16:21:33Z
2017-12-13T14:23:06Z,42.805,6.029,13.2938,4.59958,2472.137,2017-12-13T16:24:36Z
2017-12-13T14:26:09Z,42.805,6.029,13.2941,4.59958,2472.145,2017-12-13T16:27:39Z
2017-12-13T14:29:12Z,42.805,6.029,13.2935,4.59958,2472.137,2017-12-13T16:30:42Z
2017-12-13T14:32:15Z,42.805,6.029,13.2940,4.59956,2472.123,2017-12-13T16:33:45Z
2017-12-13T14:35:18Z,42.805,6.029,13.2933,4.59955,2472.137,2017-12-13T16:36:48Z
2017-12-13T14:38:21Z,42.805,6.029,13.2939,4.59955,2472.115,2017-12-13T16:39:50Z
2017-12-13T14:41:23Z,42.805,6.029,13.2936,4.59956,2472.145,2017-12-13T16:42:53Z
2017-12-13T14:44:26Z,42.805,6.029,13.2939,4.59957,2472.123,2017-12-13T16:45:56Z
2017-12-13T14:47:29Z,42.805,6.029,13.2938,4.59969,2472.115,2017-12-13T16:48:59Z
2017-12-13T14:50:32Z,42.805,6.029,13.2939,4.59961,2472.123,2017-12-13T16:52:02Z
2017-12-13T14:53:35Z,42.805,6.029,13.2935,4.59955,2472.16,2017-12-13T16:55:05Z
2017-12-13T14:56:38Z,42.805,6.029,13.2933,4.59955,2472.115,2017-12-13T16:58:08Z